Cosmos 1464 Rocket - Orbit

View from above orbital plane
View from above orbital plane
View from above satellite
View from above satellite

Ground track
Ground track

The orbit data is extracted from the following two-line orbital elements,

1 14085U 83048B   13143.04912992 -.00000001  00000-0 -15945-4 0  9428
2 14085 082.9433 112.8603 0032133 300.1653 127.1288 13.76153277506259
Epoch (UTC): 23 May 2013 01:10:44
Eccentricity: 0.0032133
inclination: 82.9433°
perigee height: 954 km
apogee height: 1001 km
right ascension of ascending node: 112.8603°
argument of perigee: 300.1653°
revolutions per day: 13.76153277
mean anomaly at epoch: 127.1288°
orbit number at epoch: 50625

The dashed part of the orbit path shows where the satellite is in the earth's shadow,  

Developed and maintained by Chris Peat, Heavens-Above GmbH. Please read the updated FAQ before sending e-mail. Imprint. DLR